Location: Street
(51.1247°N, 2.7429°W)
Time: 15:52:19
(UTC+00:00)

SR - Pass Details

Date: 29 November 2020
Orbit: 575 x 880 km, 66.7° (Epoch: 26 January)

Event Time Altitude Azimuth Distance (km) Brightness Sun altitude
Rises 04:58:05 0° 306° (NW) 3,229 - -26.1°
Reaches altitude 10° 05:02:11 10° 275° (W) 2,373 - -25.5°
Maximum altitude 05:03:56 12° 256° (WSW) 2,292 - -25.2°
Drops below altitude 10° 05:05:42 10° 237° (WSW) 2,424 - -24.9°
Sets 05:10:04 0° 207° (SSW) 3,409 - -24.2°
